Regional Weather Roundup
Issued by NWS

Home | Current Version | Previous Version | Text Only | Print | Product List | Glossary Off
Versions: 1 2 3 4 5 6 7 8 9 10 11 12 13 14 15 16 17 18 19 20 21 22 23 24 25 26 27 28 29 30 31 32 33 34 35 36 37 38 39 40 41 42 43 44 45 46 47 48 49 50

000
ASUS45 KBOU 291207
RWRCO

WEATHER ROUNDUP FOR COLORADO
NATIONAL WEATHER SERVICE DENVER/BOULDER CO
600 AM MDT FRI MAY 29 2015

NOTE: "FAIR" INDICATES FEW OR NO CLOUDS BELOW 12000 FEET WITH NO
SIGNIFICANT WEATHER AND/OR OBSTRUCTIONS TO VISIBILITY.

COZ001>005-013-030-031-291300-
...NORTHWEST COLORADO...

CITY           SKY/WX    TMP DP  RH WIND       PRES   REMARKS
CRAIG          PTCLDY    39  37  92 CALM      30.26R
HAYDEN         CLOUDY    39  36  87 SE7       30.26R
MEEKER         PTCLDY    38  34  85 E6        30.27R
MOUNT WERNER   NOT AVBL
STEAMBOAT SPGS CLOUDY    39  38  97 CALM      30.27R
WALDEN         CLOUDY    37  32  81 CALM      30.27S
$$

COZ006>008-011-291300-
...WEST CENTRAL VALLEYS...

CITY           SKY/WX    TMP DP  RH WIND       PRES   REMARKS
GRAND JUNCTION CLEAR     43  42  97 SE3       30.18R
MONTROSE       CLEAR     42  38  85 S5        30.24R
EAGLE          CLEAR     48  46  93 E5        30.30R
RIFLE          CLEAR     40  36  86 E3        30.24R
DELTA          CLEAR     45  41  85 CALM      30.22R
NUCLA          CLEAR     43  37  81 E7        30.24R
$$

COZ017>023-064>068-291300-
...SOUTHWEST COLORADO...

CITY           SKY/WX    TMP DP  RH WIND       PRES   REMARKS
DURANGO        CLEAR     38  34  85 N3        30.20R
CORTEZ         CLEAR     39  36  89 NE6       30.19R
PAGOSA SPRINGS CLEAR     37  32  81 CALM      30.25R
TELLURIDE      CLEAR     37  33  86 SE6       30.33S
WOLF CREEK PAS NOT AVBL
$$

COZ009-010-012-014-032>034-037-058>063-291300-
...CENTRAL COLORADO...

CITY           SKY/WX    TMP DP  RH WIND       PRES   REMARKS
ASPEN          PTCLDY    35  31  85 S3        30.28R
BUENA VISTA    PTCLDY    35  30  83 N3        30.27R
COPPER MTN     CLOUDY    34  28  80 W16       30.38S WCI  23
BERTHOUD PASS  CLOUDY    23  16  74 NW28G35   30.37S HAZE    WCI   6
COTTONWOOD PAS PTCLDY    39  27  60 W12       30.31S
GUNNISON       CLOUDY    37  32  81 CALM      30.32R
KREMMLING      MOCLDY    36  32  87 SW3       30.30R
LEADVILLE      PTCLDY    29  27  92 N6        30.31S WCI  23
MONARCH PASS   PTCLDY    28  27  93 MISG      30.48S
SALIDA         PTCLDY    39  32  76 CALM      30.33S
SUNLIGHT       CLEAR     32  30  93 CALM      30.37
WILKERSON PASS CLEAR     32  25  74 MISG      30.38S
$$

COZ069>075-291300-
...SAN LUIS VALLEY/SANGRE DE CRISTO MOUNTAINS...

CITY           SKY/WX    TMP DP  RH WIND       PRES   REMARKS
ALAMOSA        PTCLDY    33  30  88 SW6       30.26R WCI  28
LA VETA PASS   CLEAR    N/A N/A N/A MISG      30.34R
SAGUACHE       PTCLDY    37  34  87 NW14      30.28R
$$

COZ035-036-038>040-291300-
...NORTHERN COLORADO FRONT RANGE...

CITY           SKY/WX    TMP DP  RH WIND       PRES   REMARKS
DENVER INTL AP MOCLDY    51  45  79 N3        30.16R
DMNS CITY PARK   N/A     48  45  91 SW3       30.18R
AURORA         MOCLDY    45  42  90 S6        30.18R
FRONT RANGE AP PTCLDY    45  43  93 MISG      30.17R
ERIE MUNI ARPT PTCLDY    46  45  95 CALM      30.16R
BOULDER MUN AP PTCLDY    50  46  87 W3        30.17R
CENTENNIAL     PTCLDY    44  41  89 CALM      30.18R
BROOMFIELD     PTCLDY    48  45  87 W3        30.18R
FORT COLLINS   MOCLDY    48  45  87 CALM      30.18R
LONGMONT       MOCLDY    50  47  92 CALM      30.18R
$$

COZ041-046-047-076>085-087-088-291300-
...PIKES PEAK/PALMER DIVIDE AND SOUTHERN FOOTHILLS...

CITY           SKY/WX    TMP DP  RH WIND       PRES   REMARKS
COLO. SPRINGS  PTCLDY    47  42  83 N10       30.18S
A. F. ACADEMY  CLEAR     40  40  98 N8        30.18S
ELLICOTT       CLEAR    N/A N/A N/A NE6       30.16S
FALCON         PTCLDY    42  39  87 NW53G104  30.21R
FORT CARSON    CLEAR     45  41  86 NW8       30.15F
LIMON          CLEAR     45  44  97 N6        30.14S
MONUMENT HILL  CLEAR     41  36  81 MISG      30.22R
TRINIDAD       CLEAR     48  45  89 W7        30.16S
$$

COZ042>045-048>051-090-091-291300-
...NORTHEAST COLORADO...

CITY           SKY/WX    TMP DP  RH WIND       PRES   REMARKS
GREELEY ARPT   MOCLDY    55  43  62 N5        30.16S
AKRON          PTCLDY    49  47  93 NW10      30.12R
BURLINGTON     CLOUDY    53  50  89 NW12      30.08R
WRAY           PTCLDY    52  50  92 W5        30.08R
STERLING       PTCLDY    52  46  82 NW7       30.09R
HOLYOKE        PTCLDY    54  48  82 NW8       30.07R
FORT MORGAN    MOCLDY    52  46  80 N9        30.13R
$$

COZ086-089-092>099-291300-
...SOUTHEAST COLORADO...

CITY           SKY/WX    TMP DP  RH WIND       PRES   REMARKS
PUEBLO         CLEAR     50  48  93 SW5       30.12S
LA JUNTA       PTCLDY    52  49  89 W9        30.09S
LAMAR          CLOUDY    53  51  93 SW5       30.06R
SPRINGFIELD      N/A     49  47  93 NW9       30.08R
$$


USA.gov is the U.S. government's official web portal to all federal, state and local government web resources and services.